Hourly Data Report for June 03, 2018

OTTAWA INTL A
ONTARIO
Current Station Operator: NAVCAN

45°19'00.000" N
75°40'00.000" W
114.90 m
6106001
71628
YOW

Download Data

Hourly Data (June 2018)
Hourly Data Report for June 3, 2018
TIME
LST
Temp Definition
°C
Dew Point Definition
°C
Rel Hum Definition
%
Precip. Amount Definition
mm

Wind Dir Definition
10's deg

Wind Spd Definition
km/h
Visibility Definition
km
Stn Press Definition
kPa
Hmdx Definition


Wind Chill Definition


Weather Definition


00:00 14.2 3.8 49   7 14 24.1 100.24     LegendNANA
01:00 13.9 1.2 42   6 19 24.1 100.23     Clear
02:00 12.2 1.3 47   5 17 24.1 100.27     LegendNANA
03:00 11.8 1.9 51   6 17 24.1 100.21     LegendNANA
04:00 10.4 3.1 61   6 18 24.1 100.22     Clear
05:00 10.8 4.2 63   6 23 24.1 100.23     LegendNANA
06:00 12.4 4.4 58   7 26 24.1 100.26     LegendNANA
07:00 14.4 3.5 48   8 27 24.1 100.23     Clear
08:00 16.7 2.6 39   8 28 24.1 100.24     LegendNANA
09:00 18.3 3.0 36   10 30 24.1 100.22     LegendNANA
10:00 20.2 3.3 33   8 26 24.1 100.18     Mainly Clear
11:00 21.6 5.1 34   8 23 24.1 100.11     LegendNANA
12:00 22.5 7.4 37   9 25 24.1 100.01     LegendNANA
13:00 22.6 8.8 41   9 19 24.1 99.95     Mostly Cloudy
14:00 23.5 9.2 40   8 22 24.1 99.81     LegendNANA
15:00 22.2 8.7 42   9 16 24.1 99.75     LegendNANA
16:00 21.6 8.3 42   8 16 24.1 99.71     Cloudy
17:00 20.6 11.0 54   14 6 24.1 99.68     LegendNANA
18:00 19.3 12.6 65   19 9 24.1 99.68     LegendNANA
19:00 16.3 15.1 92   17 9 12.9 99.67     Rain
20:00 16.0 14.9 93   17 23 4.8 99.63     Rain, Fog
21:00 15.0 14.2 95   18 18 8.1 99.60     Rain, Fog
22:00 14.9 14.3 96   16 18 9.7 99.54     Rain, Fog
23:00 14.8 14.2 96   13 16 16.1 99.45     Rain

Notes on Data Quality.

Legend

  • E = Estimated
  • M = Missing
  • NA = Not Available*
  • [empty] = Indicates an unobserved value
Date modified: